COSMOS 2251 DEB, 35793

Orbit data source: Space-Track

COSMOS 2251 DEB, 35793 is space debris in LEO originally from a launch on Wed, 16 Jun 1993 UTC launched from the Plesetsk Missile And Space Complex (PKMTR). The debris from Iridium 33, an American commercial communications satellite, has been tracked extensively since its accidental collision with the defunct Russian satellite Cosmos 2251 in 2009. This event, occurring at high speed in low Earth orbit (LEO), generated thousands of pieces of space debris, significantly increasing the risk of further collisions. The Iridium 33 debris cloud has impacted space traffic management and orbital debris mitigation strategies, making it a subject of ongoing study in space situational awareness.

Loading next visibility...
Identifier
35793, 1993-036ASP
Orbit
LEO
Country
Flag of CISCIS
Related business
Manufacturer
Unknown
Mission
Spacecraft
Bus & Motor
Unknown
Mass
Unknown
Launch date (UTC)
1993-06-16 (33 years ago)
Launch vehicle
Unknown
Launch site
Plesetsk Missile And Space Complex (PKMTR)
Object type
Payload
Rocket body
Debris
Shape & HBR
Unknown shape, 0.1 m
Radar Cross Section
Small (<0.1 m²)

Expand to show TLE details & history
Last TLE update: 6 days ago

TLE from 6 days ago
0 COSMOS 2251 DEB
1 35793U 93036ASP 26057.92974743  .00012058  00000-0  15559-2 0  9996
2 35793  74.0399 270.1796 0004605 312.0995 111.7184 14.81044035669247
Epoch: 2026-02-26T22:18Z
TLE epoch observation values (Epoch: 2026-02-26T22:18:50.177Z)
Latitude
59.78187°
Longitude
167.93021°
Altitude
637.037 km
Speed
7.545 km/s
True Right ascension
19h 57m 39s
True Declination
59° 37' 46"
Sunlit
Object was in daylight at epoch
Visualization orbit readout
Latitude
Unknown
Longitude
Unknown
Altitude
Unknown
Speed
Unknown
Apparent Right ascension
Unknown
Apparent Declination
Unknown
Sunlit
N/A
Visualization observer readout
Local Sidereal Time
19:19:39
Azimuth
Unknown
Elevation
Unknown
Doppler factor
Unknown
Orbital elements
Apogee altitude
626.829 km
Perigee altitude
620.38 km
Semi-major axis
7,001.742 km
Eccentricity
0.00046
Inclination
74.0399°
RAAN
270.1796°
Arg. of periapsis
312.0995°
True anomaly
111.76741°
Mean anomaly
111.7184°
Eccentric anomaly
111.74291°
Mean motion
3.70454 °/min
Orbital period
97.18 mins
BSTAR
0.0015559

Documentation

Showing up to 5 results
|